| time (UTC) | temp F | wind direction | speed MPH | gust MPH | rain 1hr in | rain 24hr in | rain mn in | humidity % | barometer mb |
| 20260901035404 | 62 | 61 | 0.0 | 2.0 | 0.00 | 0.00 | 0.00 | 95 | 1019.7 |
| 20260901034904 | 62 | 61 | 0.0 | 2.0 | 0.00 | 0.00 | 0.00 | 95 | 1019.7 |
| 20260901034404 | 62 | 62 | 0.0 | 1.0 | 0.00 | 0.00 | 0.00 | 95 | 1019.6 |
| 20260901033904 | 62 | 62 | 0.0 | 2.0 | 0.00 | 0.00 | 0.00 | 95 | 1019.7 |
| 20260901033404 | 62 | 62 | 0.0 | 2.0 | 0.00 | 0.00 | 0.00 | 95 | 1019.7 |
| 20260901032904 | 62 | 61 | 2.0 | 3.0 | 0.00 | 0.00 | 0.00 | 95 | 1019.7 |
| 20260901031904 | 62 | 61 | 1.0 | 3.0 | 0.00 | 0.00 | 0.00 | 95 | 1019.8 |
| 20260901031405 | 62 | 60 | 1.0 | 3.0 | 0.00 | 0.00 | 0.00 | 95 | 1020.0 |
| 20260901030904 | 62 | 59 | 0.0 | 2.0 | 0.00 | 0.00 | 0.00 | 95 | 1020.0 |
| 20260901030404 | 62 | 59 | 0.0 | 2.0 | 0.00 | 0.00 | 0.00 | 95 | 1020.1 |
| 20260901025904 | 62 | 58 | 0.0 | 3.0 | 0.00 | 0.00 | 0.00 | 95 | 1020.2 |
| 20260901025404 | 62 | 54 | 1.0 | 3.0 | 0.00 | 0.00 | 0.00 | 95 | 1020.1 |
| 20260901024404 | 62 | 59 | 3.0 | 9.0 | 0.00 | 0.00 | 0.00 | 94 | 1020.2 |
| 20260901023405 | 62 | 89 | 3.0 | 8.0 | 0.00 | 0.00 | 0.00 | 94 | 1020.2 |
| 20260901022904 | 63 | 74 | 2.0 | 6.0 | 0.00 | 0.00 | 0.00 | 94 | 1020.2 |
| 20260901022404 | 63 | 59 | 1.0 | 5.0 | 0.00 | 0.00 | 0.00 | 94 | 1020.2 |
| 20260901021904 | 63 | 68 | 4.0 | 6.0 | 0.00 | 0.00 | 0.00 | 94 | 1020.3 |
| 20260901021404 | 63 | 68 | 3.0 | 7.0 | 0.00 | 0.00 | 0.00 | 93 | 1020.4 |
| 20260901020904 | 63 | 54 | 3.0 | 9.0 | 0.00 | 0.00 | 0.00 | 93 | 1020.4 |
| 20260901020404 | 63 | 58 | 5.0 | 9.0 | 0.00 | 0.00 | 0.00 | 94 | 1020.4 |
| 20260901015904 | 63 | 30 | 0.0 | 8.0 | 0.00 | 0.00 | 0.00 | 94 | 1020.5 |
| 20260901015407 | 63 | 44 | 3.0 | 6.0 | 0.00 | 0.00 | 0.00 | 93 | 1020.6 |
| 20260901014904 | 63 | 79 | 2.0 | 7.0 | 0.00 | 0.00 | 0.00 | 93 | 1020.6 |
| 20260901014404 | 64 | 54 | 1.0 | 5.0 | 0.00 | 0.00 | 0.00 | 93 | 1020.7 |
| 20260901013904 | 64 | 47 | 5.0 | 8.0 | 0.00 | 0.00 | 0.00 | 93 | 1020.6 |
| 20260901013404 | 64 | 27 | 3.0 | 8.0 | 0.00 | 0.00 | 0.00 | 93 | 1020.5 |
| 20260901012904 | 64 | 59 | 5.0 | 9.0 | 0.00 | 0.00 | 0.00 | 93 | 1020.6 |
| 20260901012404 | 64 | 81 | 3.0 | 6.0 | 0.00 | 0.00 | 0.00 | 93 | 1020.6 |
| 20260901011904 | 64 | 69 | 0.0 | 3.0 | 0.00 | 0.00 | 0.00 | 93 | 1020.6 |
| 20260901011404 | 64 | 48 | 2.0 | 6.0 | 0.00 | 0.00 | 0.00 | 93 | 1020.7 |
| 20260901010904 | 64 | 49 | 3.0 | 9.0 | 0.00 | 0.00 | 0.00 | 93 | 1020.7 |
| 20260901010404 | 64 | 42 | 2.0 | 7.0 | 0.00 | 0.00 | 0.00 | 92 | 1020.8 |
| 20260901005904 | 64 | 60 | 4.0 | 8.0 | 0.00 | 0.00 | 0.00 | 92 | 1020.8 |
| 20260901004904 | 64 | 66 | 1.0 | 3.0 | 0.00 | 0.00 | 0.00 | 92 | 1020.9 |
| 20260901004404 | 64 | 39 | 2.0 | 3.0 | 0.00 | 0.00 | 0.00 | 92 | 1020.9 |
| 20260901003905 | 64 | 37 | 1.0 | 5.0 | 0.00 | 0.00 | 0.00 | 92 | 1020.9 |
| 20260901003404 | 64 | 63 | 2.0 | 5.0 | 0.00 | 0.00 | 0.00 | 92 | 1020.9 |
| 20260901002904 | 64 | 44 | 3.0 | 6.0 | 0.00 | 0.00 | 0.00 | 92 | 1020.9 |
| 20260901002404 | 64 | 48 | 2.0 | 6.0 | 0.00 | 0.00 | 0.00 | 92 | 1021.0 |
| 20260901001904 | 64 | 53 | 1.0 | 6.0 | 0.00 | 0.00 | 0.00 | 93 | 1021.0 |
| 20260901000904 | 64 | 46 | 0.0 | 3.0 | 0.00 | 0.00 | 0.00 | 93 | 1021.2 |
| 20260901000405 | 64 | 38 | 0.0 | 3.0 | 0.00 | 0.00 | 0.00 | 93 | 1021.1 |
| 20260831235904 | 64 | 49 | 2.0 | 5.0 | 0.00 | 0.00 | 0.00 | 93 | 1021.1 |
| 20260831235404 | 64 | 44 | 2.0 | 5.0 | 0.00 | 0.00 | 0.00 | 93 | 1021.2 |
| 20260831234905 | 64 | 61 | 3.0 | 5.0 | 0.00 | 0.00 | 0.00 | 93 | 1021.3 |
| 20260831234404 | 64 | 54 | 1.0 | 5.0 | 0.00 | 0.00 | 0.00 | 93 | 1021.3 |
| 20260831233906 | 64 | 61 | 2.0 | 3.0 | 0.00 | 0.00 | 0.00 | 93 | 1021.3 |
| 20260831233414 | 64 | 68 | 2.0 | 3.0 | 0.00 | 0.00 | 0.00 | 93 | 1021.2 |
| 20260831232904 | 64 | 68 | 2.0 | 3.0 | 0.00 | 0.00 | 0.00 | 93 | 1021.3 |
| 20260831232407 | 64 | 70 | 0.0 | 3.0 | 0.00 | 0.00 | 0.00 | 93 | 1021.4 |
| 20260831231903 | 64 | 65 | 2.0 | 3.0 | 0.00 | 0.00 | 0.00 | 94 | 1021.3 |
| 20260831225404 | 64 | 49 | 3.0 | 6.0 | 0.00 | 0.00 | 0.00 | 93 | 1021.8 |
| 20260831224404 | 65 | 36 | 0.0 | 5.0 | 0.00 | 0.00 | 0.00 | 93 | 1021.9 |
| 20260831223404 | 65 | 6 | 3.0 | 8.0 | 0.00 | 0.00 | 0.00 | 92 | 1022.0 |
| 20260831222905 | 65 | 28 | 2.0 | 5.0 | 0.00 | 0.00 | 0.00 | 92 | 1022.0 |
| 20260831222404 | 65 | 36 | 3.0 | 7.0 | 0.00 | 0.00 | 0.00 | 92 | 1022.0 |
| 20260831221904 | 65 | 24 | 2.0 | 5.0 | 0.00 | 0.00 | 0.00 | 92 | 1022.0 |
| 20260831221404 | 64 | 13 | 3.0 | 6.0 | 0.00 | 0.00 | 0.00 | 92 | 1022.0 |
| 20260831220904 | 64 | 18 | 3.0 | 8.0 | 0.00 | 0.00 | 0.00 | 92 | 1022.0 |
| 20260831220404 | 65 | 38 | 5.0 | 7.0 | 0.00 | 0.00 | 0.00 | 92 | 1021.9 |
| 20260831215904 | 65 | 42 | 2.0 | 7.0 | 0.00 | 0.00 | 0.00 | 92 | 1021.9 |
| 20260831214904 | 65 | 17 | 0.0 | 3.0 | 0.00 | 0.00 | 0.00 | 93 | 1022.1 |
| 20260831214404 | 64 | 12 | 5.0 | 9.0 | 0.00 | 0.00 | 0.00 | 92 | 1022.1 |
| 20260831213904 | 65 | 48 | 3.0 | 6.0 | 0.00 | 0.00 | 0.00 | 93 | 1022.0 |
| 20260831213404 | 64 | 352 | 1.0 | 6.0 | 0.00 | 0.00 | 0.00 | 93 | 1022.0 |
| 20260831212904 | 64 | 23 | 4.0 | 9.0 | 0.00 | 0.00 | 0.00 | 93 | 1022.0 |
| 20260831212404 | 64 | 27 | 3.0 | 6.0 | 0.00 | 0.00 | 0.00 | 93 | 1022.0 |
| 20260831211904 | 64 | 39 | 3.0 | 9.0 | 0.00 | 0.00 | 0.00 | 92 | 1022.0 |
| 20260831211404 | 64 | 24 | 5.0 | 8.0 | 0.00 | 0.00 | 0.00 | 92 | 1022.0 |
| 20260831210904 | 64 | 37 | 3.0 | 7.0 | 0.00 | 0.00 | 0.00 | 92 | 1022.0 |
| 20260831210404 | 65 | 40 | 3.0 | 9.0 | 0.00 | 0.00 | 0.00 | 92 | 1022.0 |
| 20260831204404 | 65 | 49 | 2.0 | 7.0 | 0.00 | 0.00 | 0.00 | 92 | 1021.9 |
| 20260831203904 | 65 | 16 | 2.0 | 7.0 | 0.00 | 0.00 | 0.00 | 92 | 1021.9 |
| 20260831203404 | 65 | 37 | 2.0 | 5.0 | 0.00 | 0.00 | 0.00 | 91 | 1021.9 |
| 20260831202904 | 65 | 16 | 5.0 | 9.0 | 0.00 | 0.00 | 0.00 | 91 | 1021.8 |
| 20260831202404 | 65 | 9 | 3.0 | 8.0 | 0.00 | 0.00 | 0.00 | 91 | 1021.9 |
| 20260831201904 | 65 | 20 | 2.0 | 9.0 | 0.00 | 0.00 | 0.00 | 91 | 1021.9 |
| 20260831201404 | 65 | 47 | 4.0 | 9.0 | 0.00 | 0.00 | 0.00 | 91 | 1021.8 |
| 20260831200904 | 65 | 25 | 6.0 | 10.0 | 0.00 | 0.00 | 0.00 | 91 | 1021.8 |
| 20260831200404 | 65 | 26 | 3.0 | 12.0 | 0.00 | 0.00 | 0.00 | 90 | 1021.8 |
| 20260831195904 | 65 | 22 | 3.0 | 10.0 | 0.00 | 0.00 | 0.00 | 90 | 1021.8 |
| 20260831195403 | 65 | 62 | 4.0 | 10.0 | 0.00 | 0.00 | 0.00 | 90 | 1021.7 |
| 20260831194904 | 65 | 12 | 4.0 | 8.0 | 0.00 | 0.00 | 0.00 | 89 | 1021.7 |
| 20260831194404 | 65 | 12 | 6.0 | 10.0 | 0.00 | 0.00 | 0.00 | 89 | 1021.7 |
| 20260831193904 | 65 | 9 | 3.0 | 7.0 | 0.00 | 0.00 | 0.00 | 89 | 1021.7 |
| 20260831193404 | 65 | 23 | 6.0 | 10.0 | 0.00 | 0.00 | 0.00 | 89 | 1021.6 |
| 20260831192904 | 65 | 25 | 1.0 | 5.0 | 0.00 | 0.00 | 0.00 | 89 | 1021.6 |
| 20260831192404 | 65 | 38 | 3.0 | 10.0 | 0.00 | 0.00 | 0.00 | 89 | 1021.5 |
| 20260831191904 | 65 | 40 | 6.0 | 9.0 | 0.00 | 0.00 | 0.00 | 89 | 1021.5 |
| 20260831191405 | 65 | 15 | 8.0 | 12.0 | 0.00 | 0.00 | 0.00 | 88 | 1021.4 |
| 20260831190404 | 66 | 26 | 7.0 | 12.0 | 0.00 | 0.00 | 0.00 | 88 | 1021.3 |
| 20260831185904 | 66 | 7 | 4.0 | 12.0 | 0.00 | 0.00 | 0.00 | 87 | 1021.3 |
| 20260831185404 | 66 | 46 | 4.0 | 12.0 | 0.00 | 0.00 | 0.00 | 87 | 1021.3 |
| 20260831184904 | 66 | 27 | 9.0 | 13.0 | 0.00 | 0.00 | 0.00 | 87 | 1021.3 |
| 20260831184404 | 66 | 41 | 5.0 | 10.0 | 0.00 | 0.00 | 0.00 | 87 | 1021.3 |
| 20260831183905 | 66 | 24 | 6.0 | 14.0 | 0.00 | 0.00 | 0.00 | 86 | 1021.2 |
| 20260831183404 | 66 | 15 | 4.0 | 14.0 | 0.00 | 0.00 | 0.00 | 86 | 1021.2 |
| 20260831182904 | 66 | 15 | 7.0 | 14.0 | 0.00 | 0.00 | 0.00 | 86 | 1021.2 |
| 20260831182404 | 66 | 26 | 8.0 | 12.0 | 0.00 | 0.00 | 0.00 | 86 | 1021.2 |
| 20260831181904 | 66 | 33 | 7.0 | 15.0 | 0.00 | 0.00 | 0.00 | 85 | 1021.2 |
| 20260831181405 | 66 | 17 | 6.0 | 14.0 | 0.00 | 0.00 | 0.00 | 85 | 1021.2 |
| 20260831180904 | 66 | 15 | 7.0 | 15.0 | 0.00 | 0.00 | 0.00 | 85 | 1021.1 |
| 20260831180404 | 66 | 21 | 10.0 | 16.0 | 0.00 | 0.00 | 0.00 | 85 | 1021.2 |
| 20260831175904 | 67 | 27 | 7.0 | 16.0 | 0.00 | 0.00 | 0.00 | 84 | 1021.1 |
| 20260831175404 | 67 | 21 | 10.0 | 15.0 | 0.00 | 0.00 | 0.00 | 84 | 1021.2 |
| 20260831174904 | 67 | 15 | 10.0 | 17.0 | 0.00 | 0.00 | 0.00 | 83 | 1021.2 |
| 20260831173904 | 67 | 14 | 5.0 | 12.0 | 0.00 | 0.00 | 0.00 | 82 | 1021.1 |
| 20260831173404 | 67 | 36 | 6.0 | 13.0 | 0.00 | 0.00 | 0.00 | 82 | 1021.1 |
| 20260831172904 | 67 | 12 | 10.0 | 14.0 | 0.00 | 0.00 | 0.00 | 82 | 1021.0 |
| 20260831172404 | 67 | 16 | 11.0 | 16.0 | 0.00 | 0.00 | 0.00 | 81 | 1021.0 |
| 20260831171404 | 68 | 38 | 7.0 | 13.0 | 0.00 | 0.00 | 0.00 | 80 | 1021.0 |
| 20260831170904 | 68 | 30 | 4.0 | 15.0 | 0.00 | 0.00 | 0.00 | 80 | 1021.0 |
| 20260831170404 | 68 | 21 | 10.0 | 14.0 | 0.00 | 0.00 | 0.00 | 79 | 1021.0 |
| 20260831165903 | 68 | 17 | 6.0 | 13.0 | 0.00 | 0.00 | 0.00 | 79 | 1021.0 |
| 20260831165404 | 68 | 38 | 7.0 | 14.0 | 0.00 | 0.00 | 0.00 | 79 | 1021.0 |
| 20260831164904 | 68 | 20 | 7.0 | 15.0 | 0.00 | 0.00 | 0.00 | 78 | 1021.1 |
| 20260831164404 | 68 | 27 | 7.0 | 14.0 | 0.00 | 0.00 | 0.00 | 78 | 1021.1 |
| 20260831163904 | 68 | 20 | 10.0 | 16.0 | 0.00 | 0.00 | 0.00 | 78 | 1021.1 |
| 20260831163404 | 68 | 354 | 9.0 | 15.0 | 0.00 | 0.00 | 0.00 | 77 | 1021.1 |
| 20260831162904 | 69 | 5 | 6.0 | 12.0 | 0.00 | 0.00 | 0.00 | 78 | 1021.1 |
| 20260831162404 | 69 | 13 | 10.0 | 16.0 | 0.00 | 0.00 | 0.00 | 77 | 1021.1 |
| 20260831161403 | 69 | 20 | 12.0 | 16.0 | 0.00 | 0.00 | 0.00 | 77 | 1021.1 |
| 20260831160904 | 69 | 21 | 9.0 | 13.0 | 0.00 | 0.00 | 0.00 | 77 | 1021.1 |
| 20260831155904 | 69 | 27 | 8.0 | 15.0 | 0.00 | 0.00 | 0.00 | 77 | 1021.2 |
| 20260831155404 | 69 | 18 | 9.0 | 14.0 | 0.00 | 0.00 | 0.00 | 77 | 1021.2 |
| 20260831154904 | 69 | 47 | 10.0 | 16.0 | 0.00 | 0.00 | 0.00 | 77 | 1021.2 |
| 20260831154404 | 69 | 21 | 9.0 | 14.0 | 0.00 | 0.00 | 0.00 | 78 | 1021.2 |
| 20260831153904 | 69 | 40 | 8.0 | 16.0 | 0.00 | 0.00 | 0.00 | 78 | 1021.2 |
| 20260831153404 | 69 | 29 | 10.0 | 15.0 | 0.00 | 0.00 | 0.00 | 77 | 1021.2 |
| 20260831152404 | 69 | 16 | 10.0 | 16.0 | 0.00 | 0.00 | 0.00 | 77 | 1021.2 |
| 20260831151904 | 69 | 357 | 6.0 | 20.0 | 0.00 | 0.00 | 0.00 | 76 | 1021.3 |
| 20260831151404 | 69 | 9 | 7.0 | 16.0 | 0.00 | 0.00 | 0.00 | 76 | 1021.3 |
| 20260831150404 | 69 | 27 | 11.0 | 17.0 | 0.00 | 0.00 | 0.00 | 75 | 1021.2 |
| 20260831145904 | 70 | 56 | 7.0 | 16.0 | 0.00 | 0.00 | 0.00 | 75 | 1021.2 |
| 20260831144904 | 70 | 52 | 8.0 | 14.0 | 0.00 | 0.00 | 0.00 | 74 | 1021.2 |
| 20260831143904 | 70 | 6 | 12.0 | 18.0 | 0.00 | 0.00 | 0.00 | 73 | 1021.2 |
| 20260831143404 | 70 | 31 | 7.0 | 14.0 | 0.00 | 0.00 | 0.00 | 74 | 1021.3 |
| 20260831142904 | 70 | 16 | 9.0 | 17.0 | 0.00 | 0.00 | 0.00 | 73 | 1021.3 |
| 20260831142404 | 70 | 15 | 12.0 | 16.0 | 0.00 | 0.00 | 0.00 | 73 | 1021.3 |
| 20260831141404 | 70 | 43 | 10.0 | 15.0 | 0.00 | 0.00 | 0.00 | 73 | 1021.2 |
| 20260831140904 | 70 | 26 | 11.0 | 16.0 | 0.00 | 0.00 | 0.00 | 74 | 1021.3 |
| 20260831140404 | 70 | 49 | 9.0 | 17.0 | 0.00 | 0.00 | 0.00 | 74 | 1021.2 |
| 20260831135904 | 70 | 17 | 7.0 | 18.0 | 0.00 | 0.00 | 0.00 | 75 | 1021.4 |
| 20260831135404 | 70 | 20 | 11.0 | 17.0 | 0.00 | 0.00 | 0.00 | 75 | 1021.4 |
| 20260831134904 | 70 | 26 | 9.0 | 15.0 | 0.00 | 0.00 | 0.00 | 75 | 1021.4 |
| 20260831134404 | 70 | 21 | 11.0 | 20.0 | 0.00 | 0.00 | 0.00 | 75 | 1021.4 |
| 20260831133904 | 70 | 30 | 7.0 | 17.0 | 0.00 | 0.00 | 0.00 | 75 | 1021.4 |
| 20260831133404 | 70 | 0 | 12.0 | 20.0 | 0.00 | 0.00 | 0.00 | 75 | 1021.4 |
| 20260831132904 | 70 | 20 | 12.0 | 18.0 | 0.00 | 0.00 | 0.00 | 74 | 1021.4 |
| 20260831132404 | 71 | 32 | 7.0 | 18.0 | 0.00 | 0.00 | 0.00 | 74 | 1021.4 |
| 20260831131904 | 71 | 19 | 7.0 | 17.0 | 0.00 | 0.00 | 0.00 | 74 | 1021.5 |
| 20260831131404 | 71 | 37 | 7.0 | 13.0 | 0.00 | 0.00 | 0.00 | 72 | 1021.5 |
| 20260831130904 | 72 | 61 | 8.0 | 12.0 | 0.00 | 0.00 | 0.00 | 71 | 1021.5 |
| 20260831125404 | 71 | 59 | 2.0 | 10.0 | 0.00 | 0.00 | 0.00 | 70 | 1021.7 |
| 20260831124904 | 71 | 26 | 7.0 | 12.0 | 0.00 | 0.00 | 0.00 | 71 | 1021.6 |
| 20260831124404 | 71 | 355 | 2.0 | 9.0 | 0.00 | 0.00 | 0.00 | 72 | 1021.6 |
| 20260831123904 | 71 | 2 | 8.0 | 15.0 | 0.00 | 0.00 | 0.00 | 72 | 1021.7 |
| 20260831123404 | 71 | 46 | 2.0 | 12.0 | 0.00 | 0.00 | 0.00 | 72 | 1021.7 |
| 20260831122904 | 70 | 331 | 5.0 | 8.0 | 0.00 | 0.00 | 0.00 | 71 | 1021.7 |
| 20260831122404 | 71 | 42 | 5.0 | 10.0 | 0.00 | 0.00 | 0.00 | 71 | 1021.8 |
| 20260831121404 | 70 | 124 | 3.0 | 12.0 | 0.00 | 0.00 | 0.00 | 71 | 1021.8 |
| 20260831115904 | 71 | 49 | 3.0 | 10.0 | 0.00 | 0.00 | 0.00 | 71 | 1021.9 |
| 20260831115404 | 71 | 28 | 4.0 | 9.0 | 0.00 | 0.00 | 0.00 | 71 | 1021.9 |
| 20260831114404 | 70 | 130 | 4.0 | 8.0 | 0.00 | 0.00 | 0.00 | 71 | 1021.9 |
| 20260831113903 | 69 | 126 | 3.0 | 7.0 | 0.00 | 0.00 | 0.00 | 71 | 1021.9 |
| 20260831113404 | 69 | 73 | 3.0 | 7.0 | 0.00 | 0.00 | 0.00 | 71 | 1022.0 |
| 20260831112904 | 70 | 67 | 5.0 | 10.0 | 0.00 | 0.00 | 0.00 | 71 | 1022.0 |
| 20260831112404 | 70 | 113 | 3.0 | 9.0 | 0.00 | 0.00 | 0.00 | 72 | 1022.0 |
| 20260831111904 | 70 | 106 | 6.0 | 12.0 | 0.00 | 0.00 | 0.00 | 72 | 1022.1 |
| 20260831111404 | 69 | 78 | 2.0 | 9.0 | 0.00 | 0.00 | 0.00 | 73 | 1022.1 |
| 20260831110904 | 70 | 5 | 4.0 | 10.0 | 0.00 | 0.00 | 0.00 | 73 | 1022.2 |
| 20260831110404 | 69 | 38 | 0.0 | 2.0 | 0.00 | 0.00 | 0.00 | 73 | 1022.2 |
| 20260831104904 | 68 | 44 | 2.0 | 6.0 | 0.00 | 0.00 | 0.00 | 75 | 1022.3 |
| 20260831103904 | 68 | 280 | 0.0 | 2.0 | 0.00 | 0.00 | 0.00 | 76 | 1022.3 |
| 20260831103405 | 67 | 224 | 2.0 | 7.0 | 0.00 | 0.00 | 0.00 | 76 | 1022.3 |
| 20260831102404 | 67 | 284 | 1.0 | 3.0 | 0.00 | 0.00 | 0.00 | 79 | 1022.4 |
| 20260831101904 | 66 | 301 | 0.0 | 3.0 | 0.00 | 0.00 | 0.00 | 80 | 1022.4 |
| 20260831101404 | 66 | 300 | 2.0 | 5.0 | 0.00 | 0.00 | 0.00 | 80 | 1022.5 |
| 20260831100404 | 66 | 20 | 5.0 | 8.0 | 0.00 | 0.00 | 0.00 | 79 | 1022.5 |
| 20260831095904 | 66 | 345 | 5.0 | 9.0 | 0.00 | 0.00 | 0.00 | 81 | 1022.4 |
| 20260831095404 | 66 | 341 | 4.0 | 8.0 | 0.00 | 0.00 | 0.00 | 81 | 1022.4 |
| 20260831094404 | 66 | 259 | 1.0 | 3.0 | 0.00 | 0.00 | 0.00 | 82 | 1022.3 |
| 20260831093904 | 66 | 258 | 0.0 | 2.0 | 0.00 | 0.00 | 0.00 | 82 | 1022.3 |
| 20260831093404 | 66 | 258 | 2.0 | 3.0 | 0.00 | 0.00 | 0.00 | 82 | 1022.3 |
| 20260831092904 | 66 | 292 | 1.0 | 7.0 | 0.00 | 0.00 | 0.00 | 81 | 1022.3 |
| 20260831092404 | 66 | 269 | 2.0 | 3.0 | 0.00 | 0.00 | 0.00 | 81 | 1022.2 |
| 20260831091404 | 66 | 295 | 0.0 | 3.0 | 0.00 | 0.00 | 0.00 | 82 | 1022.1 |
| 20260831090904 | 66 | 296 | 0.0 | 3.0 | 0.00 | 0.00 | 0.00 | 81 | 1022.1 |
| 20260831090404 | 66 | 296 | 0.0 | 3.0 | 0.00 | 0.00 | 0.00 | 82 | 1022.1 |
| 20260831085404 | 66 | 186 | 0.0 | 0.0 | 0.00 | 0.00 | 0.00 | 87 | 1022.1 |
| 20260831084904 | 66 | 186 | 0.0 | 0.0 | 0.00 | 0.00 | 0.00 | 89 | 1022.1 |
| 20260831084404 | 65 | 186 | 0.0 | 0.0 | 0.00 | 0.00 | 0.00 | 91 | 1022.1 |
| 20260831083904 | 65 | 186 | 0.0 | 2.0 | 0.00 | 0.00 | 0.00 | 93 | 1022.1 |
| 20260831083404 | 64 | 186 | 0.0 | 0.0 | 0.00 | 0.00 | 0.00 | 95 | 1022.0 |
| 20260831082904 | 63 | 186 | 0.0 | 1.0 | 0.00 | 0.00 | 0.00 | 95 | 1021.9 |
| 20260831082404 | 63 | 186 | 0.0 | 2.0 | 0.00 | 0.00 | 0.00 | 95 | 1022.0 |
| 20260831081904 | 62 | 186 | 0.0 | 5.0 | 0.00 | 0.00 | 0.00 | 96 | 1022.0 |
| 20260831081404 | 62 | 182 | 0.0 | 3.0 | 0.00 | 0.00 | 0.00 | 97 | 1022.0 |
| 20260831080904 | 62 | 178 | 0.0 | 1.0 | 0.00 | 0.00 | 0.00 | 97 | 1022.0 |
| 20260831075904 | 61 | 178 | 0.0 | 2.0 | 0.00 | 0.00 | 0.00 | 98 | 1022.0 |
| 20260831075404 | 61 | 173 | 0.0 | 3.0 | 0.00 | 0.00 | 0.00 | 98 | 1022.0 |
| 20260831074904 | 60 | 173 | 0.0 | 1.0 | 0.00 | 0.00 | 0.00 | 98 | 1022.0 |
| 20260831074404 | 60 | 173 | 1.0 | 5.0 | 0.00 | 0.00 | 0.00 | 98 | 1022.0 |
| 20260831073906 | 60 | 172 | 3.0 | 6.0 | 0.00 | 0.00 | 0.00 | 98 | 1022.0 |
| 20260831073403 | 60 | 161 | 2.0 | 3.0 | 0.00 | 0.00 | 0.00 | 98 | 1021.9 |
| 20260831072904 | 59 | 203 | 2.0 | 5.0 | 0.00 | 0.00 | 0.00 | 98 | 1021.9 |
| 20260831072404 | 59 | 215 | 4.0 | 6.0 | 0.00 | 0.00 | 0.00 | 98 | 1021.8 |
| 20260831071904 | 59 | 180 | 3.0 | 3.0 | 0.00 | 0.00 | 0.00 | 99 | 1021.8 |
| 20260831070905 | 59 | 181 | 5.0 | 7.0 | 0.00 | 0.00 | 0.00 | 98 | 1021.9 |
| 20260831065404 | 59 | 179 | 1.0 | 3.0 | 0.00 | 0.00 | 0.00 | 98 | 1021.8 |
| 20260831064904 | 59 | 226 | 0.0 | 2.0 | 0.00 | 0.00 | 0.00 | 98 | 1021.7 |
| 20260831064404 | 59 | 257 | 0.0 | 1.0 | 0.00 | 0.01 | 0.00 | 98 | 1021.7 |
| 20260831063404 | 59 | 257 | 1.0 | 3.0 | 0.00 | 0.02 | 0.00 | 98 | 1021.7 |
| 20260831062904 | 59 | 246 | 1.0 | 3.0 | 0.00 | 0.02 | 0.00 | 98 | 1021.7 |
| 20260831062403 | 59 | 249 | 1.0 | 3.0 | 0.00 | 0.02 | 0.00 | 98 | 1021.6 |
| 20260831061904 | 59 | 228 | 1.0 | 2.0 | 0.00 | 0.02 | 0.00 | 98 | 1021.6 |
| 20260831061404 | 59 | 206 | 1.0 | 3.0 | 0.00 | 0.02 | 0.00 | 98 | 1021.5 |
| 20260831060904 | 59 | 194 | 1.0 | 3.0 | 0.00 | 0.02 | 0.00 | 98 | 1021.4 |
| 20260831060403 | 59 | 196 | 2.0 | 3.0 | 0.00 | 0.02 | 0.00 | 98 | 1021.4 |
| 20260831055904 | 59 | 173 | 2.0 | 5.0 | 0.00 | 0.02 | 0.00 | 98 | 1021.4 |
| 20260831055404 | 60 | 173 | 2.0 | 6.0 | 0.00 | 0.02 | 0.00 | 98 | 1021.3 |
| 20260831054904 | 60 | 176 | 1.0 | 3.0 | 0.00 | 0.02 | 0.00 | 98 | 1021.2 |
| 20260831054404 | 60 | 178 | 0.0 | 0.0 | 0.00 | 0.02 | 0.00 | 98 | 1021.1 |
| 20260831052904 | 59 | 177 | 0.0 | 1.0 | 0.00 | 0.02 | 0.00 | 98 | 1021.1 |
| 20260831052404 | 59 | 177 | 0.0 | 0.0 | 0.00 | 0.02 | 0.00 | 98 | 1021.0 |
| 20260831051904 | 59 | 177 | 1.0 | 3.0 | 0.00 | 0.02 | 0.00 | 98 | 1021.0 |
| 20260831051404 | 59 | 177 | 2.0 | 3.0 | 0.00 | 0.02 | 0.00 | 98 | 1021.0 |
| 20260831050904 | 59 | 177 | 0.0 | 0.0 | 0.00 | 0.02 | 0.00 | 98 | 1020.9 |
| 20260831045904 | 59 | 178 | 1.0 | 3.0 | 0.00 | 0.02 | 0.00 | 98 | 1020.9 |
| 20260831045404 | 60 | 178 | 1.0 | 3.0 | 0.00 | 0.02 | 0.00 | 98 | 1020.9 |
| 20260831044904 | 60 | 178 | 1.0 | 3.0 | 0.00 | 0.03 | 0.00 | 98 | 1020.9 |
| 20260831044404 | 60 | 179 | 0.0 | 0.0 | 0.00 | 0.03 | 0.00 | 98 | 1020.9 |
| 20260831043904 | 60 | 178 | 0.0 | 2.0 | 0.00 | 0.06 | 0.00 | 98 | 1020.8 |
| 20260831042904 | 60 | 179 | 1.0 | 2.0 | 0.00 | 0.07 | 0.00 | 98 | 1020.8 |
| 20260831042405 | 60 | 180 | 0.0 | 0.0 | 0.00 | 0.08 | 0.00 | 98 | 1020.8 |
| 20260831041904 | 60 | 179 | 0.0 | 1.0 | 0.00 | 0.08 | 0.00 | 97 | 1020.8 |
| 20260831040904 | 60 | 180 | 0.0 | 3.0 | 0.00 | 0.09 | 0.00 | 97 | 1020.9 |